Stations météo

réclame
Mon MeteoGroup
Pertusato, France (7770): Température de l'air & dewpoint: 20.08.2019 02:00:00 - 26.08.2019 02:00:00 (CEST)Pertusato, France (7770): Vitesse du vent & gusts: 20.08.2019 02:00:00 - 26.08.2019 02:00:00 (CEST)Pertusato, France (7770): Direction du vent: 20.08.2019 02:00:00 - 26.08.2019 02:00:00 (CEST)Pertusato, France (7770): reduced air pressure: 20.08.2019 02:00:00 - 26.08.2019 02:00:00 (CEST)Pertusato, France (7770): visibility: 20.08.2019 02:00:00 - 26.08.2019 02:00:00 (CEST)Pertusato, France (7770): Quantités de précipitations: 20.08.2019 02:00:00 - 26.08.2019 02:00:00 (CEST)
Date & Time tt [°C] td [°C] ff [km/h] ff [knt] fx [km/h] fx [knt] dd ppp [hPa] vv [km] rr [mm]
26.08.2019 02:00:00 22,8 20,9 10 5 19 11 ENE 1016,6 - 0,0
26.08.2019 01:00:00 23,3 20,8 12 7 22 12 ENE 1016,8 - 0,0
26.08.2019 00:00:00 22,7 20,2 11 6 16 8 ENE 1017,0 - 0,0
25.08.2019 23:00:00 23,3 21,2 10 5 17 9 ENE 1016,9 14 0,0
25.08.2019 22:00:00 23,8 20,9 9 5 16 9 ENE 1016,7 - 0,0
25.08.2019 21:00:00 24,3 20,0 11 6 17 9 ENE 1016,5 - 0,0
25.08.2019 20:00:00 25,8 20,4 12 7 20 11 ENE 1015,8 - 0,0
25.08.2019 19:00:00 28,0 20,6 9 5 18 10 NNE 1015,2 - 0,0
25.08.2019 18:00:00 28,8 20,5 5 3 15 8 SW 1015,4 - 0,0
25.08.2019 17:00:00 28,9 20,9 11 6 22 12 W 1015,2 - 0,0
25.08.2019 16:00:00 28,9 20,1 13 7 25 13 W 1015,3 - 0,0
25.08.2019 15:00:00 29,5 20,1 11 6 27 15 NW 1015,6 - 0,0
25.08.2019 14:00:00 31,7 16,0 14 8 27 15 E 1015,9 12 0,0
25.08.2019 13:00:00 30,0 19,7 16 9 28 15 ESE 1016,3 - 0,0
25.08.2019 12:00:00 29,9 20,5 14 8 31 17 E 1016,8 - 0,0
25.08.2019 11:00:00 29,0 19,0 16 9 32 17 E 1017,1 12 0,0
25.08.2019 10:00:00 28,3 20,3 7 4 18 10 ENE 1016,9 - 0,0
25.08.2019 09:00:00 25,9 21,8 6 3 12 7 ENE 1016,6 - 0,0
25.08.2019 08:00:00 23,7 21,0 9 5 13 7 NE 1016,3 14 0,0
25.08.2019 07:00:00 21,5 19,8 10 6 13 7 NE 1016,1 - 0,0
25.08.2019 06:00:00 21,2 19,3 10 5 12 6 NNE 1015,9 - 0,0
25.08.2019 05:00:00 21,7 19,8 9 5 14 7 NE 1016,0 - 0,0
25.08.2019 04:00:00 21,8 19,9 11 6 15 8 NE 1016,3 - 0,0
25.08.2019 03:00:00 21,8 19,7 10 6 13 7 NE 1016,2 - 0,0
25.08.2019 02:00:00 22,0 20,1 9 5 11 6 NE 1016,4 - 0,0
25.08.2019 01:00:00 22,6 20,3 8 4 13 7 ENE 1016,7 - 0,0
25.08.2019 00:00:00 22,9 20,2 11 6 16 9 E 1017,0 - 0,0
24.08.2019 23:00:00 23,3 20,2 12 6 21 11 ENE 1016,9 - 0,0
24.08.2019 22:00:00 23,8 20,5 14 8 19 11 NE 1016,7 - 0,0
24.08.2019 21:00:00 24,1 20,2 11 6 18 10 ENE 1016,4 - 0,0
24.08.2019 20:00:00 25,3 20,8 11 6 29 16 ENE 1016,1 14 0,0
24.08.2019 19:00:00 27,0 20,3 18 10 32 17 ENE 1015,5 - 0,0
24.08.2019 18:00:00 28,9 19,8 16 9 30 16 NE 1015,5 - 0,0
24.08.2019 17:00:00 29,9 18,7 18 10 34 19 E 1015,9 14 0,0
24.08.2019 16:00:00 30,3 19,0 21 11 33 18 ENE 1015,9 - 0,0
24.08.2019 15:00:00 30,3 20,0 23 13 41 22 ENE 1016,2 - 0,0
24.08.2019 14:00:00 29,9 19,3 27 14 48 26 ENE 1016,6 15 0,0
24.08.2019 13:00:00 30,8 21,3 22 12 43 23 ENE 1016,9 - 0,0
24.08.2019 12:00:00 29,6 20,5 23 12 38 21 ENE 1017,3 - 0,0
24.08.2019 11:00:00 29,5 18,6 19 10 31 17 ENE 1017,3 15 0,0
24.08.2019 10:00:00 27,9 20,2 16 9 26 14 ENE 1017,2 - 0,0
24.08.2019 09:00:00 26,6 20,0 12 6 22 12 NE 1017,1 - 0,0
24.08.2019 08:00:00 23,9 18,5 11 6 19 10 NE 1017,2 15 0,0
24.08.2019 07:00:00 22,2 17,3 13 7 17 9 NE 1017,1 - 0,0
24.08.2019 06:00:00 21,9 16,4 14 8 19 10 NE 1017,0 - 0,0
24.08.2019 05:00:00 21,5 16,7 14 8 20 11 NE 1017,0 - 0,0
24.08.2019 04:00:00 21,3 17,3 16 9 21 12 NE 1017,1 - 0,0
24.08.2019 03:00:00 21,6 17,6 15 8 21 12 NE 1017,2 - 0,0
24.08.2019 02:00:00 22,2 18,6 17 9 23 12 NE 1017,3 - 0,0
24.08.2019 01:00:00 22,2 19,0 15 8 22 12 NE 1017,6 - 0,0
24.08.2019 00:00:00 22,8 19,0 15 8 23 12 NE 1017,5 - 0,0
23.08.2019 23:00:00 23,1 18,6 16 9 26 14 NE 1017,7 - 0,0
23.08.2019 22:00:00 23,2 18,3 16 9 30 16 ENE 1017,9 - 0,0
23.08.2019 21:00:00 23,2 18,7 20 11 32 18 NE 1017,7 - 0,0
23.08.2019 20:00:00 24,1 20,0 18 10 31 17 NE 1017,5 12 0,0
23.08.2019 19:00:00 26,1 20,4 18 10 31 17 ENE 1017,0 - 0,0
23.08.2019 18:00:00 27,6 20,7 21 11 35 19 ENE 1017,4 - 0,0
23.08.2019 17:00:00 29,1 20,5 21 11 33 18 ENE 1017,3 - 0,0
23.08.2019 16:00:00 29,3 19,9 22 12 41 22 ENE 1017,4 - 0,0
23.08.2019 15:00:00 29,0 20,4 26 14 45 24 NE 1017,5 - 0,0
23.08.2019 14:00:00 29,7 21,4 27 15 45 24 ENE 1017,7 12 0,0
23.08.2019 13:00:00 31,4 15,0 15 8 27 15 E 1018,3 - 0,0
23.08.2019 12:00:00 30,4 14,9 9 5 25 13 E 1018,4 - 0,0
23.08.2019 11:00:00 28,3 16,9 13 7 22 12 ESE 1018,4 12 0,0
23.08.2019 10:00:00 26,5 21,7 8 4 15 8 SE 1018,3 - 0,0
23.08.2019 09:00:00 25,6 22,3 7 4 16 9 SSE 1017,9 - 0,0
23.08.2019 08:00:00 24,9 22,0 5 3 21 11 NE 1017,6 - 0,0
23.08.2019 07:00:00 23,8 19,7 6 3 14 8 S 1017,1 - 0,0
23.08.2019 06:00:00 22,9 19,7 10 5 16 9 NW 1017,0 - 0,0
23.08.2019 05:00:00 22,5 19,9 7 4 18 10 NNW 1017,1 12 0,0
23.08.2019 04:00:00 22,7 21,0 12 7 20 11 NNW 1017,3 - 0,0
23.08.2019 03:00:00 22,8 20,1 4 2 11 6 N 1017,5 - 0,0
23.08.2019 02:00:00 22,9 21,5 8 4 18 10 N 1018,2 - 0,0
23.08.2019 01:00:00 22,4 20,7 12 6 21 12 NE 1018,4 - 0,0
23.08.2019 00:00:00 22,1 20,0 16 9 27 15 ENE 1018,3 - 0,6
22.08.2019 23:00:00 24,7 23,3 14 7 19 11 ENE 1018,4 - 0,0
22.08.2019 22:00:00 24,8 22,7 10 5 15 8 ENE 1018,3 - 0,0
22.08.2019 21:00:00 25,1 22,6 6 3 23 13 E 1017,4 - 0,0
22.08.2019 20:00:00 25,8 22,9 14 7 22 12 E 1017,1 - 0,0
22.08.2019 19:00:00 26,8 22,2 8 4 23 12 ENE 1016,8 - 0,0
22.08.2019 18:00:00 27,0 23,3 16 9 29 15 E 1016,8 - 0,0
22.08.2019 17:00:00 27,2 23,0 21 12 30 16 E 1017,3 - 0,0
22.08.2019 16:00:00 28,5 22,0 18 10 28 15 E 1017,2 - 0,0
22.08.2019 15:00:00 27,7 22,4 19 11 30 16 E 1017,5 - 0,0
22.08.2019 14:00:00 28,9 21,9 19 10 29 15 E 1017,5 - 0,0
22.08.2019 13:00:00 28,9 21,9 18 10 28 15 E 1017,8 - 0,0
22.08.2019 12:00:00 28,8 22,1 19 10 29 16 ENE 1017,6 - 0,0
22.08.2019 11:00:00 29,0 21,8 16 8 27 15 E 1017,6 12 0,0
22.08.2019 10:00:00 28,3 22,1 12 6 23 12 E 1017,5 - 0,0
22.08.2019 09:00:00 26,1 23,2 15 8 22 12 E 1017,2 - 0,0
22.08.2019 08:00:00 24,9 23,5 9 5 18 10 E 1017,4 - 0,2
22.08.2019 07:00:00 23,4 22,6 13 7 23 12 ENE 1017,0 - 0,0
22.08.2019 06:00:00 23,4 22,4 16 8 26 14 NE 1016,7 - 0,0
22.08.2019 05:00:00 23,4 22,4 18 10 24 13 ENE 1016,5 18 0,0
22.08.2019 04:00:00 23,1 21,5 14 8 21 11 NE 1016,8 - 0,0
22.08.2019 03:00:00 22,9 20,8 14 8 24 13 ENE 1017,0 - 0,0
22.08.2019 02:00:00 22,7 19,7 17 9 21 12 NE 1017,2 - 0,0
22.08.2019 01:00:00 23,1 18,6 13 7 17 9 NE 1017,4 - 0,0
22.08.2019 00:00:00 23,5 16,8 3 2 6 3 W 1017,7 - 0,0
21.08.2019 23:00:00 24,0 17,3 4 2 6 4 W 1017,6 - 0,0
21.08.2019 22:00:00 24,6 17,1 4 2 8 4 WSW 1017,3 - 0,0
21.08.2019 21:00:00 23,5 16,5 6 4 20 11 NW 1017,0 - 0,0
21.08.2019 20:00:00 24,6 21,3 15 8 25 13 W 1016,5 - 0,0
21.08.2019 19:00:00 25,7 21,6 17 9 31 17 W 1016,2 - 0,0
21.08.2019 18:00:00 26,9 21,6 15 8 26 14 W 1016,3 - 0,0
21.08.2019 17:00:00 27,3 21,8 22 12 32 17 W 1016,5 - 0,0
21.08.2019 16:00:00 27,5 22,2 20 11 26 14 W 1016,6 - 0,0
21.08.2019 15:00:00 27,7 22,0 18 10 26 14 W 1016,5 - 0,0
21.08.2019 14:00:00 27,4 22,1 16 9 27 15 W 1016,9 20 0,0
21.08.2019 13:00:00 27,9 21,9 15 8 23 12 W 1017,3 - 0,0
21.08.2019 12:00:00 26,5 21,5 13 7 31 17 W 1017,7 - 0,0
21.08.2019 11:00:00 26,1 21,3 11 6 27 14 W 1017,8 14 0,0
21.08.2019 10:00:00 25,6 21,9 15 8 25 14 W 1017,7 - 0,0
21.08.2019 09:00:00 24,9 22,0 16 9 27 15 W 1017,5 - 0,0
21.08.2019 08:00:00 24,1 21,8 17 9 27 15 W 1017,2 14 0,0
21.08.2019 07:00:00 23,2 21,5 16 9 31 17 W 1016,9 - 0,0
21.08.2019 06:00:00 23,3 21,2 23 12 33 18 W 1016,7 - 0,0
21.08.2019 05:00:00 23,0 20,9 12 7 17 9 W 1016,7 14 0,0
21.08.2019 04:00:00 23,0 21,1 7 4 11 6 WNW 1016,5 - 0,0
21.08.2019 03:00:00 23,9 21,6 5 3 18 10 N 1016,4 - 0,0
21.08.2019 02:00:00 23,6 21,7 4 2 9 5 E 1016,5 - 0,0
21.08.2019 01:00:00 23,5 21,4 4 2 9 5 W 1016,8 - 0,0
21.08.2019 00:00:00 23,4 21,5 2 1 8 4 SSE 1016,9 - 0,0
20.08.2019 23:00:00 23,8 22,2 3 1 8 4 WSW 1016,9 - 0,0
20.08.2019 22:00:00 23,9 21,2 4 2 6 3 ENE 1016,9 - 0,0
20.08.2019 21:00:00 24,1 20,4 5 3 12 7 N 1017,0 - 0,0
20.08.2019 20:00:00 26,2 21,8 4 2 16 9 N 1016,7 15 0,0
20.08.2019 19:00:00 27,6 22,3 10 5 26 14 ENE 1016,4 - 0,0
20.08.2019 18:00:00 28,4 21,7 20 11 31 17 ENE 1016,1 - 0,0
20.08.2019 17:00:00 29,7 20,8 18 10 33 18 ENE 1016,4 20 0,0
20.08.2019 16:00:00 29,8 21,2 20 11 34 18 E 1016,3 - 0,0
20.08.2019 15:00:00 30,1 21,2 22 12 34 18 E 1016,3 - 0,0
20.08.2019 14:00:00 30,3 20,3 19 10 31 17 E 1016,6 18 0,0
20.08.2019 13:00:00 30,3 20,8 19 10 32 17 E 1016,9 - 0,0
20.08.2019 12:00:00 29,1 21,3 20 11 34 18 E 1017,1 - 0,0
20.08.2019 11:00:00 28,7 22,0 19 10 35 19 E 1017,1 15 0,0
20.08.2019 10:00:00 27,6 21,4 20 11 30 16 E 1016,7 - 0,0
20.08.2019 09:00:00 25,1 21,8 14 8 30 16 ESE 1016,7 - 0,0
20.08.2019 08:00:00 23,9 21,6 19 10 28 15 E 1016,4 20 0,0
20.08.2019 07:00:00 23,3 21,9 19 10 29 16 E 1016,0 - 0,0
20.08.2019 06:00:00 23,1 22,1 18 10 29 16 ENE 1016,0 - 0,0
20.08.2019 05:00:00 23,3 22,5 16 9 29 15 ENE 1016,2 - 0,2
20.08.2019 04:00:00 23,2 22,4 16 9 27 14 ENE 1016,2 - 0,0
20.08.2019 03:00:00 23,2 22,4 15 8 21 11 E 1016,7 - 0,0
20.08.2019 02:00:00 23,1 22,1 13 7 19 10 ENE 1017,0 - 0,0

tt = Température de l'air
td = dewpoint
ff = Vitesse du vent
fx = gusts
dd = Direction du vent
ppp = reduced air pressure
vv = visibility
rr = Quantités de précipitations

stations d'obs. à proximité